Wind_Speed
16 15 14 15 15 14 13 12 12 13 14 13 12 11 10 10 10 11 11 12 13 13 14 13 12 11 11 10 9 8 8 7 5 5 6 6 5 7 7 7 7 8 9 9
18 17 18 18 16 15 14 13 14 15 15 14 14 13 12 12 12 12 12 13 14 14 14 14 13 12 11 10 9 9 8 7 6 6 7 6 6 6 7 7 8 8 8 9
20 20 20 19 17 16 15 15 16 17 17 16 15 14 13 13 13 13 13 13 13 14 14 14 13 13 11 11 11 10 8 8 7 6 6 6 6 6 7 7 8 8 7 8
23 22 21 20 19 17 17 18 18 18 18 18 17 16 13 13 13 13 13 13 13 13 14 14 14 14 12 11 10 8 8 8 8 7 7 7 6 7 7 7 8 8 9 9
24 24 23 21 20 19 19 20 19 19 18 19 19 18 14 14 13 13 12 13 12 12 13 13 14 13 11 10 8 7 7 7 7 7 7 8 8 8 8 8 8 9 10 11
26 26 24 22 22 21 20 21 20 20 19 19 19 19 15 14 13 13 13 12 12 12 13 13 12 12 10 8 7 7 7 7 6 7 7 8 8 9 10 9 9 9 10 11
27 26 25 24 23 22 22 21 21 20 20 19 18 18 16 14 13 13 12 12 11 11 13 13 11 11 9 8 7 7 7 7 7 7 8 8 8 9 10 10 10 10 11 12
28 27 26 25 24 23 23 22 22 21 20 19 19 18 15 13 13 12 11 10 10 11 12 12 12 10 9 7 7 7 6 7 7 7 7 8 9 9 10 10 11 11 12 13
29 28 27 26 25 25 24 23 22 22 21 20 19 17 14 13 12 12 11 10 11 12 12 12 12 11 9 8 8 7 5 5 6 7 7 7 7 8 9 10 11 11 12 13
32 30 29 28 28 27 26 24 24 23 22 21 19 17 15 13 13 12 10 11 12 12 12 12 12 10 8 7 7 6 6 6 6 6 7 7 7 7 8 9 10 12 13 13
33 32 31 30 29 28 27 25 25 24 23 21 19 16 15 14 13 12 12 11 12 12 12 12 11 10 8 7 7 7 7 7 6 6 7 7 7 7 7 8 10 11 12 13
33 33 32 31 30 30 28 26 25 24 22 21 20 16 15 14 13 13 12 11 11 12 12 11 11 10 8 7 7 7 6 6 6 6 6 6 6 7 8 8 9 10 11 13
34 34 32 32 31 30 29 27 26 24 23 22 20 17 15 15 14 14 13 11 11 11 10 11 11 10 8 7 7 7 6 6 6 7 7 6 7 8 9 9 10 10 10 12
34 33 31 29 28 28 28 27 26 25 24 22 19 17 15 15 14 14 12 11 12 11 11 11 10 9 9 9 7 7 7 7 7 7 7 6 7 7 8 10 10 11 12 13
33 32 30 29 28 29 29 28 27 26 24 22 19 17 15 15 14 14 14 14 13 11 12 12 10 9 9 9 8 7 7 8 8 8 8 8 7 8 9 10 10 11 12 13
34 32 30 29 29 29 30 29 28 27 26 24 21 18 17 16 16 15 14 14 13 12 12 12 11 10 9 9 9 9 9 9 9 9 9 9 9 10 11 11 11 12 12 13
36 34 32 30 30 31 31 30 30 29 27 25 23 20 18 17 17 16 16 14 13 13 13 13 12 11 10 10 10 10 10 10 10 11 11 11 12 12 12 13 13 13 14 14
38 36 34 32 32 33 30 30 30 30 29 28 25 22 21 20 19 18 17 16 15 15 15 15 13 12 12 12 12 12 11 11 12 12 13 13 14 14 15 15 15 16 16 16
42 40 38 36 35 34 32 30 30 30 30 29 27 25 24 22 22 21 19 18 18 17 17 16 15 14 14 14 14 14 14 14 14 14 15 15 15 15 16 17 17 18 18 18
45 44 43 41 39 37 34 32 31 30 31 29 28 27 26 24 23 21 20 20 20 19 19 18 18 17 17 17 17 17 17 16 16 16 16 17 17 17 18 19 19 19 19 20
48 47 46 45 44 41 37 35 33 33 31 29 29 28 27 26 24 22 22 21 22 21 20 19 19 19 19 19 20 19 18 18 18 18 19 19 19 19 20 20 21 21 21 21
49 49 48 47 46 44 40 38 36 34 32 31 30 29 28 27 26 25 24 23 23 22 22 22 22 22 22 22 22 21 20 20 20 20 21 21 22 22 22 22 22 22 23 22
49 50 50 50 48 45 42 40 38 36 34 32 31 29 29 28 27 27 26 26 26 25 26 25 25 25 25 24 23 22 22 22 22 22 23 23 23 23 23 23 23 23 23 23
48 49 50 50 50 48 45 42 40 37 35 33 31 30 30 29 30 30 30 29 28 27 27 28 28 27 26 26 25 24 23 23 23 24 24 24 24 24 24 24 24 24 24 23
47 47 49 49 49 49 47 44 42 40 37 35 33 32 31 31 31 31 32 32 31 30 30 30 29 27 26 26 25 25 25 25 25 25 26 26 25 25 25 25 25 25 24 25
46 46 47 47 47 47 46 44 42 40 38 36 34 32 32 32 33 32 32 33 32 31 31 29 28 28 28 27 28 27 27 26 27 27 27 26 26 26 26 27 26 26 26 26
Wind_Direction
243 244 245 245 248 253 257 259 262 266 273 280 288 292 298 305 314 319 322 329 338 339 335 332 326 320 319 315 305 303 299 293 283 289 290 288 277 261 257 244 247 246 238 236
241 241 243 246 250 254 257 256 258 264 272 277 282 287 294 299 306 312 315 320 330 332 330 329 325 317 307 309 297 291 284 282 276 279 282 282 276 263 257 247 248 247 240 230
239 241 244 247 250 253 254 253 255 261 270 277 281 286 291 295 302 309 314 319 323 326 328 327 327 324 313 302 301 296 284 274 272 274 278 279 273 266 257 251 245 243 235 230
238 241 243 245 248 250 251 252 254 259 266 272 280 282 287 290 299 307 312 317 319 320 323 326 327 321 313 303 300 296 289 268 266 270 268 266 268 263 260 253 245 239 236 232
238 239 241 242 245 247 249 253 256 261 266 271 276 279 284 285 295 302 308 312 314 319 323 325 329 323 316 304 300 295 291 285 273 269 265 262 258 259 259 254 251 244 234 231
237 239 240 241 244 247 249 254 258 263 267 270 274 277 280 283 291 296 303 305 308 318 325 327 329 326 318 306 298 287 286 285 283 272 267 264 259 257 257 255 253 245 237 234
238 239 240 241 244 247 249 253 258 262 266 270 273 274 279 282 285 290 296 303 306 319 323 324 325 326 321 310 306 297 286 288 290 278 270 267 264 261 257 253 250 249 243 239
235 237 238 239 242 245 248 252 257 262 265 266 269 272 278 281 282 286 294 303 311 319 320 322 326 325 319 310 301 302 292 292 295 288 281 272 271 269 268 256 248 248 248 248
234 234 236 237 238 242 247 251 255 258 261 263 267 271 274 279 279 283 290 300 305 312 318 322 327 324 316 312 323 314 300 298 297 291 290 289 276 273 269 256 250 250 251 250
232 232 232 235 237 240 243 247 251 255 259 262 266 270 274 274 278 283 286 296 303 305 312 317 325 323 316 307 318 325 323 308 299 298 294 289 281 277 271 258 254 255 253 252
231 232 231 233 236 240 243 246 250 255 260 263 266 269 273 273 275 278 281 291 301 307 311 314 320 324 325 313 310 315 313 308 304 301 298 288 280 281 278 268 262 258 256 257
232 232 230 232 235 238 241 245 248 253 259 263 266 267 267 268 269 272 279 286 298 307 311 314 318 320 318 316 316 315 313 312 309 304 299 290 281 277 278 279 273 266 263 262
232 233 232 231 234 238 243 247 249 252 256 260 265 268 264 262 263 268 276 283 298 306 309 314 318 316 314 313 311 312 310 309 308 309 303 291 282 276 278 282 281 277 275 273
232 234 233 234 237 240 242 245 247 250 253 259 266 270 267 261 262 267 272 279 292 301 310 314 315 315 314 312 310 313 312 312 313 310 305 293 286 286 288 287 283 280 280 280
233 234 233 230 229 234 238 241 244 247 252 257 261 265 266 263 262 266 270 276 285 293 303 308 305 305 312 315 311 311 309 307 309 310 306 302 297 295 293 294 291 287 285 283
234 235 234 232 229 231 235 239 241 245 250 255 258 261 263 261 260 266 272 277 280 287 299 306 308 306 309 314 315 310 307 303 302 303 305 302 298 298 298 297 297 294 290 288
235 237 237 235 233 233 235 238 242 246 250 254 258 261 263 262 262 267 272 274 279 286 295 306 310 311 310 309 309 307 304 302 299 298 299 298 299 298 298 297 297 296 294 292
237 239 239 238 236 238 239 241 244 247 249 253 257 260 262 263 260 263 269 271 275 284 291 296 299 304 307 307 306 305 302 300 297 297 297 296 295 295 295 295 294 293 292 291
236 239 241 241 241 242 242 243 246 249 249 251 254 258 260 260 258 260 264 267 271 278 285 287 291 298 303 305 305 303 300 299 295 294 295 294 293 293 292 292 291 290 289 289
235 238 241 243 244 245 246 248 250 252 252 251 253 256 259 260 258 260 262 264 269 274 281 285 285 291 297 301 303 303 298 298 296 293 293 293 292 291 291 291 290 289 289 289
234 236 240 243 245 247 248 250 252 254 255 254 254 256 258 260 260 258 259 264 269 272 276 281 283 289 293 296 299 299 298 296 294 293 292 291 291 290 291 291 290 288 288 288
233 235 238 242 245 247 249 251 252 255 254 254 254 254 256 256 255 255 258 263 266 269 273 276 280 287 290 292 294 293 294 294 293 291 291 290 290 290 290 290 289 288 286 286
233 235 237 240 243 247 249 251 253 254 254 255 254 252 252 252 252 255 258 262 266 270 273 276 279 284 286 287 288 289 291 292 291 291 291 290 289 289 289 288 288 287 286 285
233 234 236 238 241 244 247 249 251 253 254 254 253 252 251 252 253 257 260 261 264 270 272 276 278 282 284 283 284 286 289 290 290 290 290 290 289 288 288 286 285 285 284 284
234 234 236 238 240 242 245 248 250 252 253 254 253 252 251 251 252 254 257 259 262 266 270 273 276 277 281 283 284 286 287 288 288 288 289 289 289 289 286 284 283 282 281 282
234 235 236 238 239 241 243 245 247 249 251 253 254 252 250 252 252 253 256 258 261 264 267 271 273 276 279 281 284 284 284 285 286 288 289 290 289 288 287 284 283 282 282 282
Height
5894 5896 5897 5897 5898 5899 5900 5901 5901 5901 5901 5901 5901 5901 5901 5900 5899 5899 5897 5896 5895 5893 5891 5888 5886 5884 5883 5881 5880 5879 5879 5879 5879 5879 5879 5879 5879 5879 5880 5881 5882 5883 5884 5886
5891 5893 5894 5894 5896 5897 5898 5899 5900 5899 5899 5899 5900 5900 5900 5899 5898 5897 5896 5894 5893 5891 5889 5887 5884 5882 5881 5879 5878 5876 5877 5877 5877 5877 5877 5877 5877 5878 5879 5880 5880 5881 5883 5884
5887 5889 5890 5892 5893 5895 5896 5897 5897 5897 5897 5897 5898 5898 5898 5897 5896 5895 5894 5893 5891 5889 5887 5885 5883 5881 5879 5877 5875 5875 5874 5874 5875 5875 5876 5876 5876 5877 5877 5878 5879 5880 5881 5883
5882 5885 5887 5888 5890 5892 5893 5893 5894 5894 5895 5895 5896 5896 5896 5895 5894 5893 5892 5891 5889 5887 5885 5883 5881 5878 5877 5875 5873 5873 5873 5873 5873 5873 5874 5875 5875 5876 5876 5877 5878 5879 5880 5881
5879 5880 5882 5885 5887 5888 5889 5889 5891 5892 5892 5893 5893 5893 5894 5893 5892 5891 5890 5889 5887 5885 5883 5881 5878 5876 5874 5872 5872 5871 5872 5871 5871 5872 5872 5873 5873 5874 5875 5875 5876 5877 5878 5880
5874 5876 5878 5881 5882 5884 5886 5887 5888 5888 5889 5890 5890 5890 5891 5891 5890 5889 5888 5887 5885 5883 5881 5879 5876 5874 5872 5871 5871 5870 5870 5870 5870 5870 5871 5871 5871 5872 5872 5873 5874 5875 5876 5877
5869 5872 5874 5877 5878 5880 5882 5884 5885 5885 5886 5887 5887 5887 5889 5888 5887 5886 5886 5885 5883 5881 5879 5877 5875 5873 5871 5870 5869 5869 5869 5868 5868 5868 5869 5869 5869 5869 5870 5871 5872 5873 5874 5875
5864 5867 5870 5872 5874 5876 5877 5879 5881 5882 5883 5883 5883 5884 5886 5885 5884 5884 5883 5883 5881 5879 5878 5876 5873 5871 5870 5869 5868 5868 5867 5867 5867 5866 5866 5866 5866 5866 5867 5868 5869 5870 5871 5872
5858 5862 5865 5867 5869 5871 5873 5875 5877 5878 5878 5879 5880 5881 5883 5882 5882 5881 5881 5880 5879 5878 5876 5875 5872 5870 5868 5867 5866 5865 5865 5865 5865 5864 5864 5864 5863 5864 5864 5865 5866 5867 5868 5869
5852 5856 5859 5861 5864 5866 5869 5870 5872 5873 5874 5875 5877 5878 5879 5879 5879 5879 5879 5878 5877 5876 5875 5873 5871 5868 5866 5866 5866 5865 5864 5863 5863 5862 5862 5861 5861 5862 5862 5862 5863 5864 5865 5866
5845 5849 5853 5856 5858 5861 5864 5866 5867 5869 5870 5872 5873 5877 5876 5876 5876 5876 5876 5876 5875 5874 5873 5871 5870 5868 5866 5865 5865 5864 5863 5862 5861 5860 5860 5860 5860 5860 5860 5860 5861 5862 5862 5863
5839 5843 5847 5851 5853 5855 5858 5861 5863 5865 5867 5868 5869 5874 5872 5873 5873 5873 5873 5873 5873 5872 5871 5869 5868 5866 5865 5864 5864 5863 5862 5861 5860 5859 5858 5858 5858 5858 5859 5859 5859 5859 5859 5860
5833 5837 5841 5845 5849 5851 5854 5857 5859 5861 5862 5863 5865 5870 5868 5869 5870 5870 5871 5871 5870 5870 5869 5867 5866 5865 5864 5863 5862 5862 5860 5860 5858 5857 5857 5857 5856 5857 5857 5857 5856 5857 5857 5856
5828 5831 5837 5842 5845 5847 5849 5852 5854 5856 5857 5859 5862 5864 5864 5865 5866 5867 5868 5868 5868 5868 5867 5865 5864 5863 5863 5862 5861 5860 5859 5858 5857 5856 5855 5855 5855 5855 5855 5854 5854 5854 5854 5853
5821 5826 5830 5835 5838 5840 5843 5846 5849 5851 5853 5856 5858 5859 5861 5862 5863 5864 5865 5865 5865 5865 5865 5864 5863 5862 5861 5860 5859 5858 5858 5857 5856 5855 5854 5853 5853 5853 5852 5852 5852 5851 5851 5850
5815 5820 5824 5829 5832 5835 5837 5840 5843 5846 5848 5851 5853 5855 5857 5858 5859 5860 5861 5862 5862 5862 5862 5861 5860 5859 5858 5858 5857 5856 5856 5855 5854 5854 5853 5852 5851 5850 5850 5849 5849 5848 5848 5847
5809 5813 5818 5822 5826 5828 5831 5836 5838 5841 5844 5846 5849 5852 5852 5854 5855 5857 5858 5858 5859 5859 5858 5858 5858 5856 5856 5855 5855 5854 5853 5853 5852 5851 5850 5849 5849 5848 5847 5846 5846 5845 5844 5843
5802 5806 5811 5815 5820 5822 5829 5831 5833 5836 5839 5841 5844 5846 5848 5850 5851 5853 5854 5855 5855 5855 5855 5855 5855 5854 5853 5853 5852 5851 5851 5850 5849 5848 5847 5846 5846 5845 5844 5843 5842 5841 5840 5839
5795 5799 5803 5807 5811 5815 5820 5824 5827 5830 5833 5836 5838 5841 5842 5844 5846 5848 5849 5850 5851 5851 5851 5851 5851 5851 5851 5850 5849 5848 5847 5846 5846 5845 5844 5843 5842 5841 5840 5839 5838 5837 5836 5835
5787 5791 5796 5799 5803 5807 5814 5817 5820 5824 5826 5830 5833 5835 5837 5838 5841 5843 5844 5845 5845 5846 5846 5846 5847 5847 5846 5846 5845 5844 5843 5842 5841 5840 5840 5839 5838 5837 5836 5835 5834 5832 5832 5830
5778 5782 5786 5791 5795 5799 5806 5809 5814 5818 5821 5824 5826 5829 5831 5833 5836 5837 5838 5839 5840 5841 5841 5841 5842 5842 5841 5841 5840 5840 5839 5838 5837 5836 5835 5834 5833 5832 5831 5829 5828 5827 5826 5825
5768 5773 5778 5782 5787 5793 5798 5802 5806 5809 5813 5816 5819 5822 5824 5826 5828 5830 5832 5833 5834 5835 5835 5836 5836 5836 5836 5835 5835 5834 5833 5832 5831 5831 5829 5828 5827 5826 5825 5824 5822 5821 5820 5819
5758 5764 5768 5774 5780 5784 5789 5793 5797 5801 5805 5808 5811 5814 5817 5819 5821 5823 5825 5827 5828 5829 5829 5830 5830 5830 5830 5829 5829 5828 5827 5826 5826 5825 5823 5822 5821 5820 5819 5817 5816 5815 5814 5813
5748 5753 5758 5764 5769 5774 5780 5784 5788 5792 5796 5800 5803 5806 5809 5811 5814 5816 5818 5819 5821 5822 5822 5823 5823 5823 5823 5822 5822 5822 5821 5820 5819 5818 5817 5816 5814 5813 5812 5811 5809 5808 5807 5806
5738 5743 5748 5753 5760 5765 5771 5775 5780 5784 5788 5792 5795 5798 5801 5804 5806 5808 5809 5811 5812 5814 5815 5816 5816 5816 5816 5815 5815 5815 5814 5813 5812 5811 5810 5809 5807 5806 5804 5803 5802 5801 5800 5799
5729 5734 5739 5745 5751 5756 5762 5766 5771 5775 5779 5783 5786 5790 5792 5795 5797 5799 5801 5802 5804 5805 5806 5807 5807 5807 5807 5807 5807 5807 5806 5806 5805 5804 5802 5801 5800 5798 5797 5796 5795 5794 5793 5792